Wind_Speed
3 5 7 9 11 11 13 12 12 9 9 6 6 10 12 13 15 19 23 24 21 22
3 5 8 8 9 10 12 13 12 9 6 5 5 6 8 9 11 15 21 22 21 19
3 6 7 7 9 11 12 11 12 11 6 3 4 5 7 7 8 10 13 16 16 15
2 4 5 7 9 10 12 11 12 12 8 4 2 3 1 1 1 3 5 7 8 9
2 2 5 6 8 9 10 10 12 13 11 9 8 6 5 3 0 2 2 4 6 8
4 3 5 6 7 7 8 9 10 11 12 11 10 9 8 7 5 2 2 4 5 2
4 3 3 5 5 5 6 7 9 10 11 12 11 10 8 7 6 5 6 5 4 3
4 3 1 4 3 4 3 5 6 8 10 11 11 13 12 10 8 7 5 4 3 2
6 4 1 1 1 2 1 2 4 6 7 8 9 10 8 7 7 8 7 8 8 8
8 7 4 3 3 3 3 1 2 4 5 7 8 9 8 7 7 6 7 8 10 10
10 14 10 7 6 6 6 4 2 2 4 6 7 8 8 8 7 7 8 9 9 9
14 20 15 12 10 8 8 6 4 4 4 5 6 8 8 9 8 8 8 7 9 8
18 24 17 17 14 11 10 9 7 5 5 3 3 5 6 9 5 7 7 6 6 4
17 20 19 19 17 15 12 10 8 8 7 5 4 3 3 4 6 5 6 6 4 4
Wind_Direction
61 22 18 356 359 346 347 339 344 335 318 283 262 233 228 227 228 223 227 234 232 226
16 357 1 3 6 349 351 348 354 351 329 299 256 230 222 229 226 230 230 234 236 233
4 360 8 8 7 6 1 356 3 2 351 331 302 261 250 248 251 233 226 229 234 232
37 17 21 19 16 13 8 15 22 22 18 17 22 356 51 50 231 229 227 228 227 231
108 60 19 22 21 16 16 25 35 40 42 47 50 51 34 17 185 201 197 212 226 239
135 75 20 9 20 22 25 33 43 49 53 57 59 57 56 57 58 68 148 129 134 162
147 103 17 360 28 30 29 49 54 55 62 61 59 58 60 65 67 77 94 102 102 73
162 150 13 14 39 42 31 56 63 65 71 77 85 77 66 70 76 81 86 93 77 66
185 192 230 36 60 50 61 62 60 70 80 90 93 82 65 69 77 78 81 89 84 79
206 211 229 224 189 180 201 138 103 110 100 93 97 94 81 69 81 86 86 88 87 84
217 236 234 230 224 207 207 200 180 135 112 102 105 100 96 90 90 92 96 93 93 96
232 244 235 234 227 216 224 225 199 167 147 138 123 109 102 105 108 118 119 120 114 97
231 248 250 236 235 227 225 216 220 197 184 169 139 120 102 104 106 109 117 129 126 113
237 245 244 236 232 224 216 214 209 210 206 199 170 152 156 152 128 123 123 121 122 126
Height
1539 1539 1540 1537 1535 1534 1529 1528 1524 1521 1519 1519 1518 1518 1520 1522 1524 1526 1530 1534 1536 1539
1538 1539 1538 1536 1536 1533 1530 1527 1524 1521 1520 1518 1518 1519 1520 1520 1522 1524 1527 1529 1532 1534
1539 1538 1538 1537 1535 1532 1530 1527 1524 1521 1519 1518 1518 1518 1518 1519 1521 1523 1525 1527 1529 1531
1539 1540 1538 1537 1535 1533 1530 1527 1524 1521 1519 1518 1518 1518 1518 1519 1520 1522 1523 1524 1526 1528
1538 1539 1536 1535 1535 1534 1532 1529 1525 1522 1521 1520 1520 1519 1519 1520 1521 1522 1523 1524 1525 1526
1539 1538 1536 1535 1534 1534 1534 1531 1527 1525 1523 1523 1522 1522 1522 1522 1523 1523 1523 1524 1524 1524
1539 1537 1537 1535 1535 1535 1535 1533 1531 1528 1526 1524 1525 1525 1525 1525 1525 1525 1525 1525 1525 1524
1538 1538 1537 1536 1536 1535 1537 1535 1533 1532 1530 1528 1527 1527 1528 1527 1527 1526 1526 1527 1526 1526
1538 1537 1537 1536 1536 1536 1537 1536 1535 1534 1532 1530 1529 1530 1531 1531 1530 1530 1529 1528 1528 1528
1537 1537 1536 1536 1536 1536 1537 1537 1537 1535 1534 1532 1531 1530 1531 1532 1533 1533 1533 1532 1531 1531
1535 1533 1534 1535 1536 1536 1536 1536 1536 1537 1535 1534 1532 1532 1532 1532 1533 1534 1535 1535 1534 1534
1532 1530 1532 1534 1535 1536 1536 1537 1537 1537 1537 1536 1534 1534 1535 1535 1534 1534 1535 1535 1535 1536
1527 1527 1529 1532 1533 1534 1535 1536 1537 1537 1538 1537 1536 1536 1536 1537 1539 1538 1536 1536 1536 1536
1521 1523 1526 1529 1530 1532 1533 1534 1535 1536 1536 1537 1537 1537 1537 1538 1539 1540 1540 1538 1537 1537